Home   Weather   Dubrovnik   Past weeks

Flag for Croatia Past Weather in Dubrovnik, Croatia — Yesterday and Last 2 Weeks

Now
57 °F

Passing clouds.


Feels Like: 57 °F
Forecast: 54 / 60 °F
Wind: 3 mph from East

Location: Dubrovnik / Cilipi

Current Time: Apr 30, 2017 at 10:57:06 pm

Latest Report: Apr 30, 2017 at 10:30 pm


Visibility: N/A

Pressure: 29.86 "Hg

Humidity: 77%

Dew Point: 50 °F

Location of DubrovnikLocation

Past Weather in Dubrovnik — Graph

°F

Dubrovnik Temperature Yesterday

Maximum temperature yesterday: 66 °F (at 12:00 am)
Minimum temperature yesterday: 52 °F (at 2:00 pm)
Average temperature yesterday: 59 °F

High & Low Weather Summary for the Past Weeks

 TemperatureHumidityPressure
High72 °F (Apr 27, 1:00 pm)100% (Apr 16, 10:30 am)30.24 "Hg (Apr 16, 10:30 am)
Low39 °F (Apr 20, 6:00 am)24% (Apr 27, 8:00 pm)29.68 "Hg (Apr 18, 8:30 pm)
Average56 °F52%29.99 "Hg
* Reported Apr 15 9:00 pm — Apr 30 9:30 pm, Dubrovnik, Weather by CustomWeather, © 2017

Note: Actual official high and low records may vary slightly from our data, if they occured in-between our weather recording intervals... More about our weather records

Advertising

Dubrovnik Weather History for the Previous 24 Hours

Scroll right to see more
 ConditionsComfort  
Time TempWeatherWind HumidityBarometerVisibility
9:30 pm
Sun, Apr 30
57 °FClear.No wind77%29.86 "Hg10 mi
9:00 pm59 °FPassing clouds.5 mph72%29.83 "HgN/A
8:30 pm59 °FPassing clouds.8 mph77%29.83 "HgN/A
8:00 pm59 °FClear.7 mph77%29.83 "Hg10 mi
7:30 pm59 °FSunny.7 mph72%29.83 "Hg10 mi
7:00 pm59 °FPassing clouds.9 mph72%29.83 "HgN/A
6:30 pm61 °FPassing clouds.9 mph63%29.83 "HgN/A
6:00 pm61 °FPassing clouds.9 mph63%29.83 "HgN/A
5:30 pm61 °FPassing clouds.12 mph59%29.83 "HgN/A
5:00 pm61 °FSunny.13 mph63%29.83 "Hg10 mi
4:30 pm63 °FPassing clouds.12 mph56%29.83 "HgN/A
4:00 pm63 °FPassing clouds.13 mph56%29.83 "HgN/A
3:30 pm63 °FPassing clouds.13 mph64%29.83 "HgN/A
3:00 pm63 °FPassing clouds.12 mph59%29.86 "HgN/A
2:00 pm64 °FPassing clouds.8 mph56%29.86 "HgN/A
1:30 pm64 °FPassing clouds.9 mph56%29.86 "HgN/A
1:00 pm66 °FPassing clouds.10 mph46%29.86 "HgN/A
12:30 pm64 °FSunny.8 mph52%29.86 "Hg10 mi
12:00 pm64 °FPassing clouds.9 mph49%29.86 "HgN/A
11:30 am66 °FSunny.6 mph49%29.86 "Hg10 mi
11:00 am68 °FPassing clouds.12 mph40%29.86 "HgN/A
10:30 am66 °FPassing clouds.15 mph37%29.86 "HgN/A
10:00 am64 °FPassing clouds.18 mph40%29.86 "HgN/A
9:30 am61 °FPassing clouds.21 mph45%29.86 "HgN/A
9:00 am61 °FPassing clouds.20 mph45%29.86 "HgN/A
8:30 am59 °FPassing clouds.16 mph45%29.86 "HgN/A
8:00 am57 °FPassing clouds.16 mph48%29.86 "HgN/A
7:30 am55 °FPassing clouds.15 mph51%29.86 "HgN/A
7:00 am55 °FPassing clouds.14 mph51%29.86 "HgN/A
6:30 am54 °FPassing clouds.18 mph54%29.83 "HgN/A
6:00 am52 °FPassing clouds.23 mph58%29.83 "HgN/A
5:30 am52 °FClear.22 mph58%29.83 "Hg10 mi
5:00 am52 °FPassing clouds.24 mph58%29.83 "HgN/A
4:30 am52 °FPassing clouds.25 mph54%29.83 "HgN/A
4:00 am52 °FPassing clouds.28 mph54%29.83 "HgN/A
3:30 am52 °FPassing clouds.28 mph54%29.83 "HgN/A
3:00 am52 °FPassing clouds.28 mph58%29.86 "HgN/A
2:30 am52 °FPassing clouds.25 mph58%29.86 "HgN/A
2:00 am52 °FPassing clouds.26 mph54%29.86 "HgN/A
1:30 am52 °FPassing clouds.25 mph58%29.86 "HgN/A
1:00 am54 °FPassing clouds.24 mph54%29.86 "HgN/A
12:30 am54 °FClear.25 mph54%29.89 "Hg10 mi
12:00 am54 °FPassing clouds.23 mph58%29.89 "HgN/A
11:30 pm
Sat, Apr 29
54 °FPassing clouds.23 mph58%29.89 "HgN/A
11:00 pm54 °FPassing clouds.26 mph58%29.89 "HgN/A
10:30 pm54 °FPassing clouds.23 mph63%29.89 "HgN/A
Weather by CustomWeather, © 2017

See weather overviewHow to use our weather pages